Weather History for Whiteville, NC

Change the Weather History Date:

Monday, December 16, 2013

  Actual Average (KLBT) Record (KLBT)
Temperature  
Mean Temperature 46 °F 46 °F  
Max Temperature 58 °F 56 °F 75 °F (2011)
Min Temperature 33 °F 36 °F 17 °F (2004)
Degree Days  
Heating Degree Days 20 19  
Month to date heating degree days 277  
Since 1 July heating degree days 743  
Cooling Degree Days 0 0  
Month to date cooling degree days 0  
Year to date cooling degree days 1907  
Moisture  
Dew Point 35 °F    
Average Humidity 74    
Maximum Humidity 95    
Minimum Humidity 41    
Precipitation  
Precipitation 0.03 in 0.09 in 0.27 in (2007)
Month to date precipitation 1.65  
Year to date precipitation 42.28  
Sea Level Pressure  
Sea Level Pressure 30.16 in    
Wind  
Wind Speed 1 mph (SW)    
Max Wind Speed 6 mph    
Max Gust Speed -    
Visibility 10 miles    
Events      
T = Trace of Precipitation, MM = Missing Value Source: NWS Daily Summary

Daily Weather History Graph

Daily Weather History Graph

Search for Another Location

Airport:

Trip Planner

Search our weather history database for the weather conditions in past years. The results will help you decide how hot, cold, wet, or windy it might be!

Date:

Astronomy

Dec. 16, 2013 Rise Set
Actual Time 7:14 AM EST 5:06 PM EST
Civil Twilight 6:46 AM EST 5:34 PM EST
Nautical Twilight 6:15 AM EST 6:06 PM EST
Astronomical Twilight 5:44 AM EST 6:36 PM EST
Moon 4:53 PM EST (12/16) 6:23 AM EST (12/16)
Length of Visible Light 10h 48m
Length of Day
9h 52m
Full, 100% of the Moon is Illuminated
Dec 16
Full
Dec 17
Full
Dec 25
Last Quarter
Jan 1
New
Jan 7
First Quarter

Hourly Weather History & Observations

Time (EST) Temp. Windchill Dew Point Humidity Pressure Visibility Wind Dir Wind Speed Gust Speed Precip Events Conditions
12:15 AM 40.1 °F - 35.4 °F 83% 30.11 in 10.0 mi Calm Calm - N/A   Clear
12:35 AM 38.3 °F - 35.6 °F 90% 30.11 in 10.0 mi Calm Calm - N/A   Clear
12:55 AM 37.6 °F - 35.2 °F 91% 30.11 in 10.0 mi Calm Calm - N/A   Clear
1:15 AM 37.6 °F - 34.7 °F 89% 30.11 in 10.0 mi Calm Calm - N/A   Clear
1:35 AM 37.2 °F - 34.7 °F 91% 30.11 in 10.0 mi Calm Calm - N/A   Clear
1:55 AM 36.7 °F - 34.3 °F 91% 30.10 in 10.0 mi Calm Calm - N/A   Clear
2:15 AM 35.6 °F - 33.3 °F 91% 30.11 in 10.0 mi Calm Calm - N/A   Clear
2:35 AM 35.8 °F - 34.2 °F 94% 30.11 in 10.0 mi Calm Calm - N/A   Clear
2:55 AM 35.6 °F - 33.8 °F 93% 30.12 in 10.0 mi Calm Calm - N/A   Scattered Clouds
3:15 AM 34.7 °F - 33.3 °F 94% 30.12 in 10.0 mi Calm Calm - N/A   Scattered Clouds
3:35 AM 34.7 °F - 33.4 °F 95% 30.13 in 10.0 mi Calm Calm - N/A   Clear
3:55 AM 34.9 °F - 33.6 °F 95% 30.13 in 10.0 mi Calm Calm - N/A   Clear
4:15 AM 34.9 °F - 33.6 °F 95% 30.13 in 10.0 mi Calm Calm - N/A   Clear
4:35 AM 34.0 °F - 32.5 °F 94% 30.13 in 10.0 mi Calm Calm - N/A   Clear
5:15 AM 33.4 °F - 32.2 °F 95% 30.13 in 10.0 mi Calm Calm - N/A   Clear
5:35 AM 33.3 °F - 32.0 °F 95% 30.13 in 10.0 mi Calm Calm - N/A   Clear
5:55 AM 33.3 °F - 32.0 °F 95% 30.14 in 10.0 mi Calm Calm - N/A   Clear
6:15 AM 34.3 °F - 32.2 °F 92% 30.15 in 10.0 mi Calm Calm - N/A   Clear
6:35 AM 34.7 °F - 32.2 °F 91% 30.15 in 10.0 mi Calm Calm - N/A   Clear
6:55 AM 35.1 °F - 32.0 °F 89% 30.16 in 10.0 mi Calm Calm - N/A   Clear
7:15 AM 34.9 °F - 32.0 °F 89% 30.16 in 10.0 mi Calm Calm - N/A   Clear
7:35 AM 35.1 °F - 31.6 °F 87% 30.16 in 10.0 mi Calm Calm - N/A   Clear
7:55 AM 35.6 °F - 32.0 °F 87% 30.17 in 10.0 mi Calm Calm - N/A   Clear
8:15 AM 37.0 °F - 32.0 °F 82% 30.18 in 10.0 mi Calm Calm - N/A   Clear
8:35 AM 38.5 °F - 32.0 °F 78% 30.19 in 10.0 mi Calm Calm - N/A   Clear
8:55 AM 40.3 °F - 32.4 °F 73% 30.19 in 10.0 mi Calm Calm - N/A   Clear
9:15 AM 41.7 °F 38.8 °F 32.4 °F 69% 30.20 in 10.0 mi West 4.6 mph - N/A   Clear
9:35 AM 42.8 °F 41.1 °F 32.5 °F 67% 30.20 in 10.0 mi WSW 3.5 mph - N/A   Clear
9:55 AM 44.6 °F - 32.9 °F 64% 30.21 in 10.0 mi Calm Calm - N/A   Clear
10:15 AM 45.5 °F 43.2 °F 32.7 °F 61% 30.21 in 10.0 mi West 4.6 mph - N/A   Clear
10:35 AM 47.5 °F - 32.7 °F 57% 30.22 in 10.0 mi West 3.5 mph - N/A   Clear
10:55 AM 48.7 °F - 33.4 °F 56% 30.21 in 10.0 mi Calm Calm - N/A   Clear
11:15 AM 50.5 °F - 33.6 °F 52% 30.21 in 10.0 mi WSW 3.5 mph - N/A   Clear
11:35 AM 51.3 °F - 33.1 °F 50% 30.20 in 10.0 mi WSW 4.6 mph - N/A   Clear
11:55 AM 52.0 °F - 33.1 °F 49% 30.19 in 10.0 mi SSW 3.5 mph - N/A   Clear
12:35 PM 54.0 °F - 33.8 °F 46% 30.16 in 10.0 mi SSW 4.6 mph - N/A   Clear
12:55 PM 54.9 °F - 34.0 °F 45% 30.15 in 10.0 mi SSW 4.6 mph - N/A   Clear
1:15 PM 55.6 °F - 33.6 °F 44% 30.15 in 10.0 mi SSW 3.5 mph - N/A   Clear
1:35 PM 56.7 °F - 34.0 °F 42% 30.14 in 10.0 mi WSW 5.8 mph - N/A   Clear
1:55 PM 57.0 °F - 34.2 °F 42% 30.14 in 10.0 mi SW 4.6 mph - N/A   Clear
2:15 PM - - - N/A% - - North - - N/A   Unknown
2:35 PM 58.1 °F - 35.2 °F 42% 30.14 in 10.0 mi SW 4.6 mph - 0.03 in   Clear
2:55 PM 58.3 °F - 35.8 °F 43% 30.14 in 10.0 mi Calm Calm - 0.03 in   Clear
3:15 PM 58.1 °F - 34.9 °F 42% 30.14 in 10.0 mi SSW 5.8 mph - N/A   Clear
3:35 PM 57.7 °F - 34.3 °F 41% 30.14 in 10.0 mi SW 4.6 mph - N/A   Clear
3:55 PM 57.7 °F - 34.9 °F 42% 30.14 in 10.0 mi SSW 4.6 mph - N/A   Clear
4:15 PM 57.2 °F - 34.9 °F 43% 30.15 in 10.0 mi Calm Calm - N/A   Clear
4:35 PM 56.3 °F - 35.8 °F 46% 30.15 in 10.0 mi SW 3.5 mph - N/A   Clear
4:55 PM 53.6 °F - 36.9 °F 53% 30.16 in 10.0 mi Calm Calm - N/A   Clear
5:15 PM 51.4 °F - 37.6 °F 59% 30.16 in 10.0 mi Calm Calm - N/A   Clear
5:35 PM 49.8 °F - 38.8 °F 66% 30.16 in 10.0 mi Calm Calm - N/A   Clear
5:55 PM 47.7 °F - 39.2 °F 72% 30.16 in 10.0 mi Calm Calm - N/A   Clear
6:15 PM 46.2 °F - 39.4 °F 77% 30.17 in 10.0 mi Calm Calm - N/A   Clear
6:35 PM 44.6 °F - 38.8 °F 80% 30.17 in 10.0 mi Calm Calm - N/A   Clear
6:55 PM 47.7 °F - 39.4 °F 73% 30.17 in 10.0 mi South 5.8 mph - N/A   Clear
7:15 PM 47.7 °F - 39.7 °F 74% 30.18 in 10.0 mi South 4.6 mph - N/A   Clear
7:35 PM 46.6 °F - 39.7 °F 77% 30.18 in 10.0 mi SW 3.5 mph - N/A   Clear
7:55 PM 46.4 °F - 39.9 °F 78% 30.18 in 10.0 mi Calm Calm - N/A   Clear
8:15 PM 45.5 °F 44.2 °F 40.1 °F 81% 30.18 in 10.0 mi SSW 3.5 mph - N/A   Clear
8:35 PM 45.1 °F 43.7 °F 39.9 °F 82% 30.19 in 10.0 mi SW 3.5 mph - N/A   Clear
8:55 PM 44.2 °F 42.7 °F 40.1 °F 85% 30.19 in 10.0 mi SSW 3.5 mph - N/A   Clear
9:15 PM 44.6 °F 43.1 °F 40.1 °F 84% 30.19 in 10.0 mi SSW 3.5 mph - N/A   Clear
9:35 PM 45.0 °F 43.5 °F 40.5 °F 84% 30.19 in 10.0 mi SSW 3.5 mph - N/A   Clear
9:55 PM 44.6 °F 43.1 °F 40.6 °F 86% 30.19 in 10.0 mi SW 3.5 mph - N/A   Clear
10:15 PM 43.3 °F 40.7 °F 39.9 °F 88% 30.19 in 10.0 mi SSW 4.6 mph - N/A   Clear
10:35 PM 43.9 °F 41.3 °F 40.3 °F 87% 30.19 in 10.0 mi SSW 4.6 mph - N/A   Clear
10:55 PM 43.7 °F 42.1 °F 40.3 °F 88% 30.19 in 10.0 mi SSW 3.5 mph - N/A   Clear
11:15 PM 44.1 °F 42.5 °F 40.5 °F 87% 30.19 in 10.0 mi SSW 3.5 mph - N/A   Clear
11:35 PM 43.0 °F 41.3 °F 40.1 °F 90% 30.18 in 10.0 mi South 3.5 mph - N/A   Clear
11:55 PM 42.8 °F 41.1 °F 39.6 °F 88% 30.18 in 10.0 mi South 3.5 mph - N/A   Clear